• In France
  • List of Countries
  • For 7 days
  • Water Temperature
  • Satellite Maps
  • Weather Map
  • Weather Widgets
  • user-avatar
    Login

    Hourly Weather Dobrich

    Today, 23 September, Saturday

    Time Temperature Precipitation Wind Pressure Humidity
    00:00 +12°C° 0 mm 5 mps 739 mmHg 74%
    01:00 +12°C° 0 mm 5 mps 739 mmHg 76%
    02:00 +11°C° 0 mm 4 mps 739 mmHg 79%
    03:00 +11°C° 0 mm 4 mps 739 mmHg 80%
    04:00 +11°C° 0 mm 4 mps 739 mmHg 81%
    05:00 +11°C° 0 mm 4 mps 739 mmHg 82%
    06:00 +11°C° 0.1 mm 4 mps 740 mmHg 78%
    07:00 +12°C° 0.1 mm 5 mps 740 mmHg 75%
    08:00 +13°C° 0.1 mm 5 mps 740 mmHg 71%
    09:00 +15°C° 0 mm 5 mps 740 mmHg 63%
    10:00 +17°C° 0 mm 5 mps 741 mmHg 54%
    11:00 +20°C° 0 mm 5 mps 741 mmHg 46%
    12:00 +21°C° 0 mm 4 mps 741 mmHg 43%
    13:00 +21°C° 0 mm 4 mps 741 mmHg 41%
    14:00 +22°C° 0 mm 4 mps 741 mmHg 39%
    15:00 +22°C° 0 mm 4 mps 741 mmHg 39%
    16:00 +21°C° 0 mm 4 mps 741 mmHg 39%
    17:00 +21°C° 0 mm 3 mps 741 mmHg 40%
    18:00 +20°C° 0 mm 3 mps 741 mmHg 41%
    19:00 +19°C° 0 mm 3 mps 741 mmHg 43%
    20:00 +18°C° 0 mm 3 mps 741 mmHg 45%
    21:00 +17°C° 0 mm 3 mps 741 mmHg 47%
    22:00 +16°C° 0 mm 3 mps 741 mmHg 49%
    23:00 +14°C° 0 mm 3 mps 741 mmHg 51%

    Tomorrow, 24 September, Sunday

    Time Temperature Precipitation Wind Pressure Humidity
    00:00 +14°C° 0 mm 3 mps 741 mmHg 52%
    01:00 +13°C° 0 mm 3 mps 741 mmHg 53%
    02:00 +13°C° 0 mm 3 mps 741 mmHg 55%
    03:00 +13°C° 0 mm 3 mps 741 mmHg 56%
    04:00 +12°C° 0 mm 3 mps 741 mmHg 57%
    05:00 +12°C° 0 mm 3 mps 741 mmHg 58%
    06:00 +13°C° 0 mm 3 mps 742 mmHg 54%
    07:00 +15°C° 0 mm 4 mps 742 mmHg 49%
    08:00 +17°C° 0 mm 4 mps 742 mmHg 45%
    09:00 +19°C° 0 mm 4 mps 742 mmHg 42%
    10:00 +21°C° 0 mm 4 mps 743 mmHg 38%
    11:00 +22°C° 0 mm 5 mps 743 mmHg 34%
    12:00 +23°C° 0 mm 4 mps 743 mmHg 33%
    13:00 +25°C° 0 mm 4 mps 742 mmHg 32%
    14:00 +25°C° 0 mm 4 mps 742 mmHg 30%
    15:00 +25°C° 0 mm 4 mps 742 mmHg 32%
    16:00 +25°C° 0 mm 3 mps 742 mmHg 33%
    17:00 +24°C° 0 mm 3 mps 742 mmHg 35%
    18:00 +21°C° 0 mm 3 mps 742 mmHg 42%
    19:00 +19°C° 0 mm 2 mps 742 mmHg 48%
    20:00 +17°C° 0 mm 2 mps 743 mmHg 55%
    21:00 +17°C° 0 mm 2 mps 743 mmHg 58%
    22:00 +18°C° 0 mm 1 mps 743 mmHg 61%
    23:00 +16°C° 0 mm 1 mps 743 mmHg 64%

    Day after tomorrow, 25 September, Monday

    Time Temperature Precipitation Wind Pressure Humidity
    00:00 +16°C° 0 mm 1 mps 743 mmHg 67%
    01:00 +16°C° 0 mm 1 mps 743 mmHg 69%
    02:00 +16°C° 0 mm 1 mps 743 mmHg 71%
    03:00 +15°C° 0 mm 1 mps 743 mmHg 73%
    04:00 +15°C° 0 mm 1 mps 743 mmHg 75%
    05:00 +15°C° 0 mm 1 mps 743 mmHg 77%
    06:00 +16°C° 0 mm 1 mps 743 mmHg 72%
    07:00 +18°C° 0 mm 2 mps 743 mmHg 68%
    08:00 +19°C° 0 mm 2 mps 743 mmHg 63%
    09:00 +20°C° 0 mm 3 mps 743 mmHg 58%
    10:00 +22°C° 0 mm 3 mps 744 mmHg 52%
    11:00 +23°C° 0 mm 4 mps 744 mmHg 47%
    12:00 +23°C° 0 mm 4 mps 743 mmHg 46%
    13:00 +23°C° 0 mm 5 mps 743 mmHg 46%
    14:00 +23°C° 0 mm 5 mps 743 mmHg 45%
    15:00 +23°C° 0 mm 5 mps 743 mmHg 47%
    16:00 +22°C° 0 mm 5 mps 743 mmHg 48%
    17:00 +22°C° 0 mm 5 mps 743 mmHg 50%
    18:00 +20°C° 0 mm 5 mps 743 mmHg 58%
    19:00 +19°C° 0 mm 4 mps 743 mmHg 65%
    20:00 +17°C° 0 mm 4 mps 743 mmHg 72%
    21:00 +17°C° 0 mm 3 mps 743 mmHg 77%
    22:00 +16°C° 0 mm 3 mps 742 mmHg 82%
    23:00 +16°C° 0 mm 3 mps 742 mmHg 87%

    26 September, Tuesday

    Time Temperature Precipitation Wind Pressure Humidity
    00:00 +14°C° 0 mm 3 mps 742 mmHg 87%
    01:00 +14°C° 0 mm 3 mps 741 mmHg 86%
    02:00 +14°C° 0 mm 3 mps 741 mmHg 86%
    03:00 +14°C° 0 mm 3 mps 741 mmHg 86%
    04:00 +13°C° 0 mm 4 mps 741 mmHg 86%
    05:00 +13°C° 0 mm 4 mps 741 mmHg 86%
    06:00 +14°C° 0 mm 4 mps 741 mmHg 81%
    07:00 +17°C° 0 mm 4 mps 741 mmHg 76%
    08:00 +18°C° 0 mm 4 mps 741 mmHg 71%
    09:00 +20°C° 0.2 mm 5 mps 741 mmHg 64%
    10:00 +22°C° 0.2 mm 5 mps 741 mmHg 58%
    11:00 +25°C° 0.2 mm 5 mps 742 mmHg 51%
    12:00 +24°C° 0.6 mm 6 mps 741 mmHg 53%
    13:00 +23°C° 0.6 mm 6 mps 741 mmHg 55%
    14:00 +23°C° 0.6 mm 7 mps 741 mmHg 57%
    15:00 +22°C° 0.3 mm 7 mps 741 mmHg 59%
    16:00 +21°C° 0.3 mm 7 mps 741 mmHg 61%
    17:00 +20°C° 0.3 mm 7 mps 741 mmHg 64%
    18:00 +19°C° 0 mm 6 mps 741 mmHg 66%
    19:00 +17°C° 0 mm 6 mps 742 mmHg 69%
    20:00 +16°C° 0 mm 6 mps 742 mmHg 72%
    21:00 +16°C° 0 mm 5 mps 742 mmHg 72%
    22:00 +15°C° 0 mm 5 mps 742 mmHg 73%
    23:00 +15°C° 0 mm 4 mps 742 mmHg 73%

    27 September, Wednesday

    Time Temperature Precipitation Wind Pressure Humidity
    00:00 +14°C° 0 mm 4 mps 742 mmHg 71%
    01:00 +14°C° 0 mm 4 mps 742 mmHg 70%
    02:00 +14°C° 0 mm 4 mps 742 mmHg 68%
    03:00 +14°C° 0 mm 4 mps 742 mmHg 67%
    04:00 +13°C° 0 mm 4 mps 742 mmHg 65%
    05:00 +13°C° 0 mm 4 mps 742 mmHg 63%
    06:00 +14°C° 0 mm 5 mps 742 mmHg 62%
    07:00 +15°C° 0 mm 5 mps 743 mmHg 60%
    08:00 +15°C° 0 mm 6 mps 743 mmHg 58%
    09:00 +16°C° 0 mm 6 mps 743 mmHg 58%
    10:00 +17°C° 0 mm 6 mps 743 mmHg 59%
    11:00 +19°C° 0 mm 6 mps 744 mmHg 59%
    12:00 +19°C° 0 mm 6 mps 744 mmHg 59%
    13:00 +19°C° 0 mm 6 mps 744 mmHg 59%
    14:00 +19°C° 0 mm 6 mps 744 mmHg 58%
    15:00 +19°C° 0 mm 6 mps 744 mmHg 58%
    16:00 +19°C° 0 mm 6 mps 744 mmHg 58%
    17:00 +19°C° 0 mm 6 mps 744 mmHg 58%
    18:00 +17°C° 0 mm 6 mps 744 mmHg 63%
    19:00 +16°C° 0 mm 5 mps 744 mmHg 68%
    20:00 +15°C° 0 mm 5 mps 745 mmHg 72%
    21:00 +14°C° 0 mm 5 mps 745 mmHg 72%
    22:00 +14°C° 0 mm 5 mps 744 mmHg 73%
    23:00 +14°C° 0 mm 4 mps 744 mmHg 73%

    28 September, Thursday

    Time Temperature Precipitation Wind Pressure Humidity
    00:00 +13°C° 0 mm 4 mps 744 mmHg 72%
    01:00 +13°C° 0 mm 4 mps 744 mmHg 72%
    02:00 +13°C° 0 mm 4 mps 744 mmHg 72%
    03:00 +12°C° 0 mm 5 mps 744 mmHg 73%
    04:00 +12°C° 0 mm 5 mps 744 mmHg 73%
    05:00 +12°C° 0 mm 5 mps 745 mmHg 74%
    06:00 +13°C° 0 mm 5 mps 745 mmHg 70%
    07:00 +14°C° 0 mm 6 mps 745 mmHg 67%
    08:00 +15°C° 0 mm 7 mps 745 mmHg 64%
    09:00 +16°C° 0 mm 7 mps 745 mmHg 59%
    10:00 +17°C° 0 mm 7 mps 746 mmHg 53%
    11:00 +18°C° 0 mm 8 mps 746 mmHg 48%
    12:00 +18°C° 0 mm 8 mps 746 mmHg 47%
    13:00 +18°C° 0 mm 7 mps 746 mmHg 46%
    14:00 +18°C° 0 mm 7 mps 746 mmHg 45%
    15:00 +18°C° 0 mm 7 mps 746 mmHg 48%
    16:00 +17°C° 0 mm 7 mps 746 mmHg 50%
    17:00 +16°C° 0 mm 7 mps 746 mmHg 52%
    18:00 +15°C° 0 mm 6 mps 746 mmHg 58%
    19:00 +14°C° 0 mm 6 mps 746 mmHg 64%
    20:00 +12°C° 0 mm 5 mps 746 mmHg 70%
    21:00 +12°C° 0 mm 5 mps 746 mmHg 70%
    22:00 +12°C° 0 mm 5 mps 746 mmHg 70%
    23:00 +10°C° 0 mm 5 mps 746 mmHg 70%
    Show more